STARLINK-35038

Last updated on Tue Sep 16 2025 00:02:08 GMT+0000 (Coordinated Universal Time)

1 65482U 25195AA 25257.83187339 -.00230489 00000+0 -13845-2 0 9990 2 65482 53.1553 1.1087 0006056 179.0533 181.0501 15.77614127 2965
UTC large
Height (km)
Speed (km/s)
/
Latitude / Longitude
Inclination (degrees)
Orbital Period (minutes)
Azimuth
Elevation
Range (km)
Doppler Factor

Next 0 passes for location: London (51.5072 / 0.1276)

Sorry there are no passes over London.